User: anonymous   Login
Location: Cussy
(47.0410°N, 4.6412°E)
Time: 01:26:06
(UTC+00:00)
Language:

COSMO-SKYMED 1 - Orbit

View from above orbital plane
View from above orbital plane
View from above satellite
View from above satellite

Ground track
Ground track

The orbit data is extracted from the following two-line orbital elements,

1 31598U 07023A   21058.53256576  .00000079  00000-0  16517-4 0  9993
2 31598  97.8850 243.9847 0001368  97.4939 262.6468 14.82153489742610
Epoch (UTC): 27 February 2021 12:46:53
Eccentricity: 0.0001368
inclination: 97.8850°
perigee height: 621 km
apogee height: 623 km
right ascension of ascending node: 243.9847°
argument of perigee: 97.4939°
revolutions per day: 14.82153489
mean anomaly at epoch: 262.6468°
orbit number at epoch: 74261

The dashed part of the orbit path shows where the satellite is in the earth's shadow,  

DLR